User: anonymous   Login
Location: Bonny Doon Airfield
(37.0704°N, 122.1252°W)
Time: 11:33:02
(UTC-07:00)
Language:

BREEZE M DEB (TANK) - Orbit

View from above orbital plane
View from above orbital plane
View from above satellite
View from above satellite

Ground track
Ground track

The orbit data is extracted from the following two-line orbital elements,

1 33437U 08057B   14295.71778170  .00002588  00000-0  76325-3 0  1158
2 33437 049.5732 351.9242 5008498 093.8544 018.5539 05.56096754119734
Epoch (UTC): 22 October 2014 17:13:36
Eccentricity: 0.5008498
inclination: 49.5732°
perigee height: 339 km
apogee height: 13819 km
right ascension of ascending node: 351.9242°
argument of perigee: 93.8544°
revolutions per day: 5.56096754
mean anomaly at epoch: 18.5539°
orbit number at epoch: 11973

The dashed part of the orbit path shows where the satellite is in the earth's shadow,  

DLR